Location: Battery Park City
(40.7115°N, 74.0163°W)
Time: 11:26:46
(UTC+00:00)

NOSS 0 Rocket - Pass Details

Date: 08 December 2019
Orbit: 934 x 956 km, 70.0° (Epoch: 26 January)

Event Time Altitude Azimuth Distance (km) Brightness Sun altitude
Rises 22:50:31 0° 215° (SW) 3,595 7.8 -15.1°
Reaches altitude 10° 22:53:05 10° 219° (SW) 2,657 7.1 -15.5°
Maximum altitude 22:59:10 60° 298° (WNW) 1,084 4.4 -16.6°
Drops below altitude 10° 23:05:20 10° 18° (NNE) 2,686 6.0 -17.8°
Enters shadow 23:05:52 - 19° (NNE) 2,885 6.1 -17.9°
